This demonstration page uses our WeatherBlox Daily Observations layout. Learn more.

39.08367, -84.50855

Hourly Observations for January 13, 2019

Temp ( °F °C ) Dew Point ( °F °C ) Humidity (%) Winds ( mph kmh ) Pressure ( in mb ) Visibility ( mi km ) Precip ( " mm )
12:07 am 00:07 Cloudy with Light Rain 33 0.6 31 -0.6 92 92 NE 7 11 30.21 1023 7 11.265408 0.001 0.001
12:53 am 00:53 Cloudy 33 0.6 31 -0.6 92 92 NE 9 15 30.15 1021 8 12.874752 0.001 0.001
1:53 am 01:53 Cloudy with Light Rain 33 0.6 30 -1.1 89 89 NE 9 15 30.15 1021 6 9.656064 0.01 0.254
2:24 am 02:24 Cloudy with Light Rain 33 0.6 30 -1.1 89 89 NE 10 17 30.18 1022 7 11.265408 0.03 0.762
2:53 am 02:53 Cloudy with Light Rain 33 0.6 30 -1.1 89 89 NE 8 13 30.18 1022 6 9.656064 0.05 1.27
3:53 am 03:53 Cloudy with Light Rain 33 0.6 30 -1.1 89 89 NNE 10 17 30.15 1021 5 8.04672 0.07 1.778
4:13 am 04:13 Cloudy with Light Wintry Mix 32 0 30 -1.1 92 92 NE 14 22 30.18 1022 4 6.437376 0.03 0.762
4:38 am 04:38 Cloudy with Light Snow 32 0 30 -1.1 92 92 NE 12 19 30.18 1022 1.75 2.816352 0.07 1.778
4:45 am 04:45 Cloudy with Light Snow 32 0 30 -1.1 92 92 NE 9 15 30.18 1022 2 3.218688 0.08 2.032
4:53 am 04:53 Cloudy with Light Snow 32 0 30 -1.1 92 92 NNE 9 15 30.15 1021 1.25 2.01168 0.09 2.286
5:06 am 05:06 Cloudy with Light Snow 32 0 30 -1.1 92 92 NNE 10 17 30.18 1022 0.75 1.207008 0.03 0.762
5:24 am 05:24 Cloudy with Light Snow 32 0 30 -1.1 92 92 NNE 9 15 30.18 1022 1.25 2.01168 0.05 1.27
5:31 am 05:31 Cloudy with Light Snow 32 0 30 -1.1 92 92 NE 10 17 30.18 1022 2 3.218688 0.05 1.27
5:43 am 05:43 Cloudy with Light Snow 32 0 29 -1.7 88 88 NE 12 19 30.18 1022 2 3.218688 0.06 1.524
5:53 am 05:53 Cloudy with Light Snow 32 0 29 -1.7 88 88 NE 12 19 30.15 1021 2 3.218688 0.06 1.524
6:09 am 06:09 Cloudy with Light Snow 31 -0.6 29 -1.7 92 92 NNE 10 17 30.18 1022 1.25 2.01168 0.001 0.001
6:42 am 06:42 Cloudy with Light Snow 31 -0.6 29 -1.7 92 92 NNE 8 13 30.21 1023 2.5 4.02336 0.02 0.508
6:49 am 06:49 Cloudy with Light Snow 30 -1 28 -2 93 93 NNE 10 17 30.21 1023 4 6.437376 0.02 0.508
6:53 am 06:53 Cloudy with Light Snow 31 -0.6 28 -2.2 89 89 N 9 15 30.18 1022 4 6.437376 0.02 0.508
7:53 am 07:53 Cloudy with Light Snow 31 -0.6 27 -2.8 85 85 NE 10 17 30.18 1022 2 3.218688 0.01 0.254
8:53 am 08:53 Cloudy with Light Snow 30 -1.1 28 -2.2 92 92 NE 8 13 30.18 1022 2 3.218688 0.01 0.254
9:00 am 09:00 Cloudy with Light Snow 31 -0.6 28 -2.2 89 89 NE 8 13 30.21 1023 1 1.609344 0.001 0.001
9:11 am 09:11 Cloudy with Light Snow 31 -0.6 28 -2.2 89 89 NE 10 17 30.21 1023 1 1.609344 0.01 0.254
9:53 am 09:53 Cloudy with Light Snow 31 -0.6 28 -2.2 89 89 NNE 7 11 30.21 1023 1.75 2.816352 0.01 0.254
10:29 am 10:29 Cloudy with Mist and Fog 31 -0.6 28 -2.2 89 89 NNE 9 15 30.24 1024 2 3.218688 0.01 0.254
10:53 am 10:53 Cloudy with Mist and Fog 32 0 28 -2.2 85 85 NNE 8 13 30.21 1023 2.5 4.02336 0.01 0.254
11:05 am 11:05 Cloudy with Mist and Fog 32 0 28 -2.2 85 85 NNE 9 15 30.24 1024 3 4.828032 0 0
11:53 am 11:53 Cloudy with Mist and Fog 32 0 28 -2.2 85 85 NNE 7 11 30.21 1023 5 8.04672 0 0
12:53 pm 12:53 Cloudy 33 0.6 28 -2.2 82 82 NNE 7 11 30.18 1022 9 14.484096 0 0
1:53 pm 13:53 Cloudy 33 0.6 28 -2.2 82 82 N 8 13 30.18 1022 8 12.874752 0 0
2:53 pm 14:53 Cloudy 33 0.6 28 -2.2 82 82 NNE 12 19 30.21 1023 8 12.874752 0 0
3:53 pm 15:53 Cloudy 33 0.6 27 -2.8 78 78 NNE 12 19 30.21 1023 8 12.874752 0 0
4:53 pm 16:53 Cloudy 33 0.6 27 -2.8 78 78 N 10 17 30.24 1024 9 14.484096 0 0
5:53 pm 17:53 Cloudy 32 0 26 -3.3 79 79 NNE 6 9 30.27 1025 10 16.09344 0 0
6:53 pm 18:53 Cloudy 32 0 26 -3.3 79 79 NNE 3 6 30.27 1025 10 16.09344 0 0
7:53 pm 19:53 Cloudy 33 0.6 26 -3.3 75 75 N 5 7 30.27 1025 9 14.484096 0 0
8:24 pm 20:24 Cloudy 33 0.6 27 -2.8 78 78 N 6 9 30.33 1027 9 14.484096 0 0
8:53 pm 20:53 Cloudy 33 0.6 27 -2.8 78 78 N 7 11 30.3 1026 10 16.09344 0 0
9:53 pm 21:53 Cloudy 33 0.6 27 -2.8 78 78 N 3 6 30.3 1026 10 16.09344 0 0
10:53 pm 22:53 Cloudy 33 0.6 27 -2.8 78 78 N 5 7 30.3 1026 10 16.09344 0 0
11:53 pm 23:53 Cloudy 32 0 26 -3.3 79 79 N 7 11 30.3 1026 10 16.09344 0 0

Powered by AerisWeather